[[{"header":{"parameterUnit":"m.s-1","parameterCategory":1,"la1":30.2991,"la2":30.254,"lo1":-89.0895,"lo2":-89.0444,"dy":0.0017,"dx":0.0017,"nx":28,"ny":28,"refTime":"2023-07-20T03:00:00:Z","depth":0,"parameterNumber":2,"parameterNumberName":"U-component_of_WINDS"},"data":[0,0,0,0,0,0,0,0,0,0,0,0,0,0,0,0,0,0,0,0,0,0,0,0,0,0,0,0,0,0,0,0,0,0,0,0,0,0,0,0,0,0,0,0,0,0,0,0,0,0,0,0,0,0,0,0,0,0,2.7847,2.7847,0,2.7894,2.7894,2.7895,2.7887,2.7887,2.7886,2.7885,2.7935,2.7937,2.7939,0,0,0,0,0,0,0,0,0,0,0,0,0,2.7754,2.7755,2.7847,2.7847,2.7848,2.7894,2.7894,2.7895,2.7888,2.7887,2.7886,2.7885,2.7934,2.7937,2.7939,0,0,0,0,0,0,0,0,0,0,0,0,0,2.7797,2.7756,2.7847,2.785,2.7851,2.7894,2.7894,2.7895,2.7888,2.7887,2.7885,2.7884,2.7934,2.7937,2.794,2.7983,0,0,2.7949,2.7951,0,0,0,0,0,0,0,0,2.7794,2.78,2.7849,2.785,2.7851,2.7883,2.788,2.7925,2.7888,2.7874,2.7885,2.7884,2.7919,2.7923,2.7935,2.7986,2.7988,2.795,2.7951,2.7953,2.7954,0,0,0,0,0,0,0,2.7791,2.7798,2.7866,2.785,2.7851,2.785,2.7855,2.7888,2.7903,2.7875,2.7874,2.788,2.7919,2.7932,2.7936,2.7989,2.7949,2.7952,2.7954,2.7955,2.808,2.8082,0,0,0,0,0,0,2.7787,2.7796,2.7864,2.7867,2.7819,2.7852,2.7858,2.7874,2.7902,2.7905,2.7881,2.7879,2.7927,2.7932,2.7938,2.7992,2.7953,2.7956,2.7957,2.8079,2.808,2.8082,0,0,0,0,0,0,2.7785,2.7793,2.7862,2.7831,2.784,2.7855,2.7874,2.7876,2.7888,2.7907,2.791,2.7891,2.7926,2.7933,2.7972,2.7994,2.7957,2.796,2.8077,2.8079,2.8081,2.8101,0,0,0,0,0,0,2.7783,2.7793,2.7809,2.7832,2.7842,2.7895,2.7875,2.7878,2.7893,2.7892,2.7917,2.792,2.7926,2.7968,2.7976,2.7997,2.7962,2.8075,2.8078,2.8081,2.8098,2.8103,2.8108,0,0,0,0,0,2.7779,2.7812,2.7809,2.7818,2.7862,2.7896,2.7902,2.7908,2.7895,2.7912,2.7924,2.7919,2.799,2.7972,2.7981,2.8004,2.8074,2.8077,2.808,2.8096,2.8102,2.8108,0,0,0,0,0,0,2.7792,2.7815,2.7812,2.7854,2.7873,2.7895,2.7916,2.7914,2.7938,2.7935,2.7942,2.7948,2.7988,2.8,2.7979,2.8049,2.803,2.8036,2.804,2.8046,2.805,2.8047,2.7965,0,0,0,0,0,2.7799,2.7824,2.7844,2.7879,2.7888,2.7901,2.7916,2.7919,2.7939,2.7948,2.7963,2.7984,2.8011,2.8029,2.8055,2.81,2.8106,2.812,2.8125,2.8129,2.8133,2.816,2.8167,2.8093,2.8093,2.8093,0,0,2.7815,2.7831,2.7846,2.7881,2.7897,2.7924,2.7908,2.7937,2.7958,2.7952,2.7991,2.8003,2.8027,2.8069,2.8089,2.8081,2.8155,2.8133,2.8136,2.8138,2.8164,2.8171,2.8178,2.8095,2.8094,2.8094,0,0,2.7858,2.7872,2.7903,2.7919,2.7942,2.7951,2.7958,2.7981,2.7989,2.8027,2.8024,2.8049,2.8096,2.8113,2.8128,2.818,2.8177,2.8188,2.8213,2.8239,2.8245,2.825,2.827,2.8277,2.8193,2.8193,2.8193,0,2.7874,2.7915,2.7919,2.795,2.7966,2.7962,2.7995,2.801,2.8041,2.8053,2.8043,2.8102,2.8117,2.8165,2.8178,2.819,2.82,2.8186,2.8243,2.8249,2.8254,2.8273,2.828,2.8194,2.8194,2.8194,2.8194,0,2.7935,2.7964,2.7986,2.8016,2.8035,2.8066,2.8077,2.8095,2.8097,2.8106,2.8147,2.8165,2.8196,2.8207,2.8209,2.8256,2.825,2.8242,2.8224,2.8262,2.8281,2.8288,2.8196,2.8195,2.8195,2.8195,0,0,2.7987,2.802,2.8028,2.8043,2.8069,2.8092,2.8123,2.8153,2.817,2.8192,2.8219,2.8259,2.8252,2.8269,2.8273,2.8295,2.8337,2.8284,2.8285,2.8295,2.8393,2.84,2.8408,2.8335,2.8336,2.8338,2.8391,0,2.8034,2.8089,2.8095,2.8145,2.8172,2.817,2.8198,2.8218,2.8228,2.8253,2.8265,2.8294,2.8281,2.8292,2.8314,2.8327,2.8357,2.8323,2.8363,2.8364,2.8358,2.8418,2.8425,2.8475,2.8398,2.8399,2.84,0,2.8095,2.8119,2.8172,2.8196,2.8208,2.8233,2.8262,2.8285,2.8309,2.8315,2.8334,2.8335,2.837,2.835,2.8398,2.8375,2.8392,2.8401,2.8403,2.8408,2.8385,2.8425,2.8491,2.8499,2.8411,2.841,2.841,0,2.813,2.8175,2.8213,2.8226,2.8254,2.8272,2.8285,2.8307,2.8325,2.835,2.8362,2.8391,2.8407,2.843,2.844,2.8424,2.8488,2.8469,2.8496,2.8496,2.851,2.8509,2.858,2.8518,2.8518,2.8518,2.8518,0,2.8182,2.8215,2.8229,2.8253,2.829,2.8297,2.8334,2.8346,2.8366,2.8393,2.8393,2.8418,2.8428,2.8456,2.8463,2.8503,2.851,2.8517,2.8519,2.8518,2.8517,2.8529,2.8527,2.852,2.852,2.8519,2.8519,0,2.8227,2.8238,2.828,2.8304,2.8311,2.8337,2.8358,2.8382,2.8392,2.8426,2.8435,2.8451,2.8483,2.8495,2.8534,2.8539,2.8586,2.8585,2.8578,2.8579,2.8606,2.8604,2.8688,2.87,2.863,2.863,2.8631,0,2.8261,2.8286,2.8313,2.8331,2.8344,2.8373,2.8391,2.84,2.8419,2.8448,2.8469,2.8501,2.8527,2.8579,2.8595,2.8626,2.8626,2.8653,2.863,2.8629,2.8628,2.8627,2.863,2.8658,2.8659,2.8659,2.866,0,2.8319,2.8324,2.835,2.8379,2.8401,2.8424,2.8446,2.8461,2.8473,2.8495,2.8528,2.8549,2.8589,2.8622,2.8653,2.8668,2.8667,2.8667,2.8675,2.8675,2.8671,2.8675,2.8592,2.8665,2.8664,2.8664,2.8664,2.8664,2.836,2.8384,2.8407,2.8437,2.8454,2.8476,2.8499,2.8513,2.854,2.8574,2.8577,2.8613,2.8637,2.868,2.8696,2.8725,2.8717,2.8729,2.8732,2.8735,2.8738,2.8665,2.873,2.873,2.873,2.873,2.873,0,2.842,2.8435,2.8463,2.8494,2.8518,2.8514,2.8539,2.856,2.8592,2.8614,2.864,2.8679,2.8711,2.873,2.8762,2.8782,2.8782,2.879,2.8789,2.8793,2.8742,2.8732,2.8789,2.8789,2.8789,2.8789,2.8789,2.8789,2.8454,2.8494,2.8501,2.855,2.8565,2.86,2.8615,2.8635,2.8653,2.8696,2.8723,2.8735,2.8756,2.879,2.882,2.8825,2.8838,2.8847,2.8851,2.8803,2.8797,2.8791,2.8782,2.8849,2.8849,2.89,2.8901,2.8901]},{"header":{"parameterUnit":"m.s-1","parameterCategory":1,"la1":30.2991,"la2":30.254,"lo1":-89.0895,"lo2":-89.0444,"dy":0.0017,"dx":0.0017,"nx":28,"ny":28,"refTime":"2023-07-20T03:00:00:Z","depth":0,"parameterNumber":3,"parameterNumberName":"V-component_of_WINDS"},"data":[0,0,0,0,0,0,0,0,0,0,0,0,0,0,0,0,0,0,0,0,0,0,0,0,0,0,0,0,0,0,0,0,0,0,0,0,0,0,0,0,0,0,0,0,0,0,0,0,0,0,0,0,0,0,0,0,0,0,-0.1282,-0.1282,0,-0.1274,-0.1274,-0.1274,-0.1276,-0.1276,-0.1276,-0.1276,-0.1266,-0.1266,-0.1266,0,0,0,0,0,0,0,0,0,0,0,0,0,-0.1299,-0.1298,-0.1282,-0.1282,-0.1282,-0.1274,-0.1274,-0.1274,-0.1276,-0.1276,-0.1276,-0.1276,-0.1267,-0.1266,-0.1266,0,0,0,0,0,0,0,0,0,0,0,0,0,-0.1291,-0.1298,-0.1282,-0.1282,-0.1282,-0.1274,-0.1274,-0.1274,-0.1276,-0.1276,-0.1276,-0.1276,-0.1267,-0.1266,-0.1266,-0.1257,0,0,-0.1264,-0.1263,0,0,0,0,0,0,0,0,-0.1292,-0.1291,-0.1282,-0.1282,-0.1282,-0.1276,-0.1276,-0.1268,-0.1276,-0.1278,-0.1276,-0.1276,-0.1269,-0.1269,-0.1267,-0.1257,-0.1256,-0.1264,-0.1263,-0.1263,-0.1263,0,0,0,0,0,0,0,-0.1292,-0.1291,-0.1279,-0.1282,-0.1282,-0.1282,-0.1281,-0.1275,-0.1272,-0.1278,-0.1278,-0.1277,-0.1269,-0.1267,-0.1266,-0.1256,-0.1264,-0.1263,-0.1263,-0.1263,-0.124,-0.124,0,0,0,0,0,0,-0.1293,-0.1291,-0.1279,-0.1279,-0.1288,-0.1282,-0.1281,-0.1278,-0.1273,-0.1272,-0.1277,-0.1277,-0.1268,-0.1267,-0.1266,-0.1257,-0.1263,-0.1263,-0.1262,-0.124,-0.124,-0.124,0,0,0,0,0,0,-0.1293,-0.1292,-0.128,-0.1285,-0.1284,-0.1281,-0.1278,-0.1278,-0.1275,-0.1272,-0.1271,-0.1275,-0.1268,-0.1267,-0.126,-0.1256,-0.1262,-0.1262,-0.1241,-0.124,-0.124,-0.1237,0,0,0,0,0,0,-0.1294,-0.1292,-0.1289,-0.1285,-0.1283,-0.1274,-0.1278,-0.1277,-0.1274,-0.1275,-0.127,-0.1269,-0.1268,-0.1261,-0.1259,-0.1255,-0.1261,-0.1241,-0.124,-0.124,-0.1238,-0.1237,-0.1236,0,0,0,0,0,-0.1294,-0.1288,-0.1289,-0.1287,-0.128,-0.1274,-0.1273,-0.1272,-0.1274,-0.1271,-0.1269,-0.127,-0.1257,-0.126,-0.1258,-0.1254,-0.1241,-0.1241,-0.124,-0.1238,-0.1237,-0.1236,0,0,0,0,0,0,-0.1291,-0.1288,-0.1288,-0.1281,-0.1278,-0.1274,-0.127,-0.1271,-0.1266,-0.1267,-0.1266,-0.1264,-0.1257,-0.1255,-0.1258,-0.1246,-0.1249,-0.1248,-0.1248,-0.1247,-0.1246,-0.1247,-0.1261,0,0,0,0,0,-0.1289,-0.1285,-0.1282,-0.1276,-0.1274,-0.1272,-0.127,-0.1269,-0.1266,-0.1264,-0.1262,-0.1258,-0.1253,-0.125,-0.1245,-0.1237,-0.1236,-0.1234,-0.1233,-0.1232,-0.1232,-0.1228,-0.1227,-0.1238,-0.1238,-0.1238,0,0,-0.1286,-0.1284,-0.1281,-0.1275,-0.1273,-0.1268,-0.1271,-0.1266,-0.1263,-0.1263,-0.1257,-0.1255,-0.1251,-0.1243,-0.124,-0.1241,-0.1228,-0.1232,-0.1231,-0.1231,-0.1227,-0.1226,-0.1225,-0.1238,-0.1238,-0.1238,0,0,-0.1278,-0.1275,-0.127,-0.1268,-0.1264,-0.1263,-0.1262,-0.1258,-0.1257,-0.125,-0.1251,-0.1247,-0.1238,-0.1236,-0.1233,-0.1224,-0.1225,-0.1223,-0.1219,-0.1215,-0.1214,-0.1214,-0.1211,-0.121,-0.1222,-0.1222,-0.1222,0,-0.1274,-0.1267,-0.1267,-0.1262,-0.126,-0.1261,-0.1256,-0.1253,-0.1248,-0.1246,-0.1248,-0.1238,-0.1235,-0.1227,-0.1225,-0.1223,-0.1221,-0.1223,-0.1215,-0.1214,-0.1213,-0.121,-0.1209,-0.1222,-0.1222,-0.1222,-0.1222,0,-0.1263,-0.1259,-0.1255,-0.1251,-0.1248,-0.1243,-0.1241,-0.1238,-0.1238,-0.1237,-0.1231,-0.1227,-0.1222,-0.122,-0.122,-0.1213,-0.1214,-0.1215,-0.1218,-0.1212,-0.1209,-0.1208,-0.1222,-0.1222,-0.1222,-0.1222,0,0,-0.1252,-0.1249,-0.1247,-0.1246,-0.1242,-0.1238,-0.1233,-0.1229,-0.1227,-0.1223,-0.1219,-0.1212,-0.1214,-0.1211,-0.121,-0.1207,-0.1201,-0.1208,-0.1208,-0.1207,-0.1193,-0.1192,-0.1191,-0.1201,-0.1201,-0.1201,-0.1193,0,-0.1244,-0.1236,-0.1236,-0.1228,-0.1224,-0.1225,-0.1221,-0.1218,-0.1217,-0.1213,-0.1212,-0.1207,-0.1209,-0.1207,-0.1204,-0.1202,-0.1198,-0.1203,-0.1197,-0.1197,-0.1199,-0.119,-0.1189,-0.1182,-0.1192,-0.1192,-0.1192,0,-0.1233,-0.123,-0.1222,-0.122,-0.1218,-0.1215,-0.1211,-0.1207,-0.1204,-0.1203,-0.1201,-0.1201,-0.1196,-0.1199,-0.1192,-0.1195,-0.1193,-0.1191,-0.1191,-0.1191,-0.1194,-0.1189,-0.118,-0.1179,-0.119,-0.119,-0.1191,0,-0.1227,-0.1221,-0.1215,-0.1214,-0.1211,-0.1208,-0.1207,-0.1204,-0.1201,-0.1198,-0.1196,-0.1192,-0.119,-0.1187,-0.1186,-0.1188,-0.1179,-0.1182,-0.1178,-0.1178,-0.1176,-0.1177,-0.1167,-0.1174,-0.1174,-0.1174,-0.1174,0,-0.1218,-0.1213,-0.1213,-0.1209,-0.1204,-0.1204,-0.1199,-0.1197,-0.1195,-0.1191,-0.1192,-0.1188,-0.1187,-0.1183,-0.1182,-0.1177,-0.1176,-0.1175,-0.1175,-0.1175,-0.1175,-0.1174,-0.1174,-0.1174,-0.1174,-0.1174,-0.1174,0,-0.121,-0.1209,-0.1204,-0.1201,-0.1201,-0.1197,-0.1195,-0.1192,-0.1191,-0.1186,-0.1185,-0.1183,-0.1179,-0.1178,-0.1172,-0.1172,-0.1166,-0.1166,-0.1167,-0.1167,-0.1164,-0.1164,-0.1153,-0.1151,-0.116,-0.116,-0.116,0,-0.1205,-0.1201,-0.1199,-0.1197,-0.1195,-0.1192,-0.1189,-0.1189,-0.1187,-0.1183,-0.118,-0.1176,-0.1173,-0.1166,-0.1164,-0.116,-0.1161,-0.1157,-0.116,-0.1161,-0.1161,-0.1161,-0.1161,-0.1156,-0.1156,-0.1156,-0.1156,0,-0.1195,-0.1195,-0.1192,-0.1189,-0.1187,-0.1184,-0.1181,-0.118,-0.1179,-0.1176,-0.1172,-0.117,-0.1165,-0.1161,-0.1157,-0.1155,-0.1155,-0.1155,-0.1154,-0.1155,-0.1156,-0.1155,-0.1166,-0.1155,-0.1155,-0.1156,-0.1156,-0.1156,-0.1188,-0.1186,-0.1184,-0.118,-0.1179,-0.1176,-0.1174,-0.1173,-0.1169,-0.1166,-0.1165,-0.1161,-0.1158,-0.1153,-0.1151,-0.1148,-0.1149,-0.1147,-0.1147,-0.1147,-0.1147,-0.1156,-0.1147,-0.1147,-0.1147,-0.1147,-0.1147,0,-0.1179,-0.1178,-0.1175,-0.1172,-0.117,-0.1171,-0.1168,-0.1166,-0.1162,-0.116,-0.1157,-0.1153,-0.1149,-0.1147,-0.1143,-0.1141,-0.1141,-0.114,-0.114,-0.114,-0.1146,-0.1147,-0.114,-0.114,-0.114,-0.114,-0.114,-0.114,-0.1174,-0.117,-0.117,-0.1164,-0.1163,-0.116,-0.1158,-0.1156,-0.1154,-0.115,-0.1147,-0.1146,-0.1143,-0.114,-0.1136,-0.1136,-0.1135,-0.1133,-0.1133,-0.1139,-0.1139,-0.114,-0.1142,-0.1133,-0.1133,-0.1127,-0.1127,-0.1127]}]]